[[{"header":{"parameterUnit":"m.s-1","parameterCategory":1,"la1":30.2991,"la2":30.254,"lo1":-89.0895,"lo2":-89.0444,"dy":0.0017,"dx":0.0017,"nx":28,"ny":28,"refTime":"2024-05-01T03:00:00:Z","depth":0,"parameterNumber":2,"parameterNumberName":"U-component_of_WINDS"},"data":[0,0,0,0,0,0,0,0,0,0,0,0,0,0,0,0,0,0,0,0,0,0,0,0,0,0,0,0,0,0,0,0,0,0,0,0,0,0,0,0,0,0,0,0,0,0,0,0,0,0,0,0,0,0,0,0,0,0,-2.1787,-2.1786,0,-2.1712,-2.1712,-2.1711,-2.1647,-2.1646,-2.1645,-2.1644,-2.1564,-2.1563,-2.1562,0,0,0,0,0,0,0,0,0,0,0,0,0,-2.1871,-2.187,-2.1787,-2.1786,-2.1785,-2.1713,-2.1712,-2.1711,-2.1647,-2.1646,-2.1645,-2.1644,-2.1565,-2.1563,-2.1561,0,0,0,0,0,0,0,0,0,0,0,0,0,-2.182,-2.187,-2.1787,-2.1745,-2.174,-2.1713,-2.1712,-2.171,-2.1647,-2.1646,-2.1645,-2.1644,-2.1566,-2.1563,-2.1561,-2.1569,0,0,-2.1554,-2.1554,0,0,0,0,0,0,0,0,-2.1823,-2.1817,-2.1752,-2.1747,-2.1742,-2.1688,-2.1712,-2.1663,-2.1647,-2.1682,-2.1644,-2.1643,-2.1606,-2.1601,-2.1589,-2.1565,-2.1562,-2.1554,-2.1553,-2.1552,-2.1551,0,0,0,0,0,0,0,-2.1826,-2.1819,-2.1757,-2.1751,-2.1745,-2.1728,-2.172,-2.1702,-2.1651,-2.1679,-2.1674,-2.1666,-2.1603,-2.1591,-2.1586,-2.1561,-2.1554,-2.1552,-2.1551,-2.155,-2.1541,-2.1542,0,0,0,0,0,0,-2.1837,-2.1823,-2.176,-2.1755,-2.1781,-2.1728,-2.1718,-2.1706,-2.1651,-2.1642,-2.1667,-2.1664,-2.1595,-2.1589,-2.1583,-2.1589,-2.1552,-2.155,-2.1549,-2.154,-2.1541,-2.1542,0,0,0,0,0,0,-2.1839,-2.1832,-2.1763,-2.1788,-2.1778,-2.1728,-2.1715,-2.1705,-2.1693,-2.1642,-2.1632,-2.1664,-2.1594,-2.1586,-2.1574,-2.1585,-2.1549,-2.1547,-2.1539,-2.154,-2.1542,-2.16,0,0,0,0,0,0,-2.1842,-2.1833,-2.1836,-2.1788,-2.1777,-2.1755,-2.1715,-2.1705,-2.169,-2.1684,-2.1637,-2.1628,-2.1593,-2.1577,-2.1571,-2.1582,-2.1545,-2.1537,-2.1539,-2.1541,-2.1597,-2.1604,-2.1609,0,0,0,0,0,-2.1845,-2.1854,-2.1836,-2.1829,-2.1779,-2.1756,-2.1749,-2.1709,-2.1691,-2.1693,-2.1661,-2.1629,-2.1586,-2.1576,-2.1569,-2.1579,-2.1536,-2.1539,-2.1541,-2.1594,-2.1602,-2.1609,0,0,0,0,0,0,-2.1902,-2.1847,-2.1826,-2.1821,-2.1794,-2.1745,-2.1746,-2.1719,-2.1695,-2.1691,-2.1642,-2.1632,-2.1624,-2.16,-2.1591,-2.1584,-2.1557,-2.1558,-2.16,-2.1607,-2.1613,-2.1618,-2.1543,0,0,0,0,0,-2.1915,-2.1901,-2.1853,-2.1853,-2.184,-2.1796,-2.1784,-2.1757,-2.1726,-2.1713,-2.168,-2.1651,-2.163,-2.1618,-2.1596,-2.1594,-2.1583,-2.1598,-2.1604,-2.1609,-2.161,-2.1608,-2.1614,-2.155,-2.155,-2.155,0,0,-2.1939,-2.1907,-2.1901,-2.1864,-2.1839,-2.1826,-2.1786,-2.1773,-2.1763,-2.1711,-2.1697,-2.1672,-2.1636,-2.1629,-2.1624,-2.1609,-2.1626,-2.1612,-2.1617,-2.1615,-2.1611,-2.1617,-2.1622,-2.1552,-2.1552,-2.1551,0,0,-2.1976,-2.1951,-2.1948,-2.1926,-2.189,-2.1861,-2.1861,-2.1817,-2.1799,-2.1785,-2.1746,-2.1732,-2.1698,-2.1674,-2.1658,-2.169,-2.166,-2.1684,-2.1715,-2.1714,-2.1719,-2.1723,-2.1734,-2.1738,-2.1686,-2.1686,-2.1686,0,-2.201,-2.1989,-2.195,-2.194,-2.1924,-2.188,-2.1876,-2.1856,-2.1815,-2.1805,-2.1789,-2.1747,-2.1719,-2.1706,-2.1714,-2.1703,-2.17,-2.1688,-2.1722,-2.1725,-2.1729,-2.1738,-2.1743,-2.1689,-2.1689,-2.1688,-2.1688,0,-2.2033,-2.2019,-2.2021,-2.1985,-2.197,-2.1963,-2.1922,-2.1912,-2.1887,-2.1859,-2.1846,-2.1812,-2.1783,-2.1779,-2.1753,-2.1762,-2.1754,-2.1731,-2.1702,-2.1739,-2.1747,-2.175,-2.1693,-2.1692,-2.1691,-2.1691,0,0,-2.2101,-2.2046,-2.2047,-2.203,-2.1989,-2.1977,-2.1969,-2.1943,-2.1935,-2.1909,-2.19,-2.1874,-2.1853,-2.1834,-2.1806,-2.1805,-2.1832,-2.1781,-2.178,-2.1791,-2.1841,-2.1857,-2.1862,-2.1813,-2.1814,-2.1814,-2.1843,0,-2.2131,-2.2114,-2.208,-2.2074,-2.2061,-2.202,-2.2013,-2.1987,-2.1962,-2.1946,-2.1918,-2.19,-2.1874,-2.1863,-2.186,-2.183,-2.1841,-2.1827,-2.1804,-2.1803,-2.1812,-2.1866,-2.1883,-2.1912,-2.1846,-2.1847,-2.1847,0,-2.2162,-2.2141,-2.2134,-2.2096,-2.2089,-2.2083,-2.2057,-2.2043,-2.2013,-2.1995,-2.1977,-2.1946,-2.1935,-2.1911,-2.1894,-2.1886,-2.1875,-2.1859,-2.1859,-2.1853,-2.1826,-2.1861,-2.192,-2.1924,-2.1852,-2.1852,-2.1851,0,-2.2212,-2.2181,-2.2173,-2.216,-2.2116,-2.2113,-2.2094,-2.2063,-2.205,-2.2027,-2.2018,-2.1994,-2.198,-2.1962,-2.1926,-2.1912,-2.1914,-2.1887,-2.1898,-2.1899,-2.1898,-2.1898,-2.1955,-2.1894,-2.1894,-2.1894,-2.1894,0,-2.2247,-2.2244,-2.2195,-2.219,-2.2186,-2.2147,-2.2144,-2.2121,-2.2095,-2.2084,-2.2048,-2.2038,-2.1992,-2.1978,-2.195,-2.1941,-2.1935,-2.1919,-2.1912,-2.1922,-2.1924,-2.1912,-2.1908,-2.1895,-2.1895,-2.1895,-2.1895,0,-2.23,-2.2267,-2.2256,-2.2216,-2.2206,-2.2204,-2.2169,-2.2163,-2.2137,-2.2125,-2.2119,-2.2078,-2.206,-2.2023,-2.1993,-2.1975,-2.1971,-2.1959,-2.1982,-2.1977,-2.199,-2.1989,-2.2039,-2.2044,-2.1982,-2.1983,-2.1983,0,-2.2324,-2.2321,-2.2282,-2.2273,-2.2256,-2.2242,-2.2229,-2.2192,-2.218,-2.2147,-2.2144,-2.2123,-2.2104,-2.2076,-2.2043,-2.2021,-2.2006,-2.2026,-2.2002,-2.2013,-2.2005,-2.2005,-2.2005,-2.203,-2.2031,-2.2032,-2.2033,0,-2.237,-2.2354,-2.2338,-2.2316,-2.2303,-2.2283,-2.2262,-2.2257,-2.2215,-2.2203,-2.2184,-2.217,-2.2141,-2.2121,-2.2094,-2.2074,-2.2046,-2.2041,-2.2042,-2.2051,-2.2064,-2.2056,-2.1994,-2.2039,-2.2038,-2.2038,-2.2038,-2.2037,-2.2408,-2.2404,-2.2376,-2.2359,-2.234,-2.2322,-2.2314,-2.2289,-2.2273,-2.2247,-2.2227,-2.221,-2.2181,-2.2143,-2.2125,-2.2111,-2.2097,-2.2099,-2.2099,-2.21,-2.2104,-2.2069,-2.2106,-2.2106,-2.2106,-2.2105,-2.2105,0,-2.245,-2.2431,-2.2417,-2.2389,-2.2377,-2.2355,-2.2331,-2.2321,-2.2307,-2.2284,-2.2267,-2.2246,-2.2226,-2.2193,-2.2171,-2.2166,-2.2153,-2.2161,-2.216,-2.2156,-2.2118,-2.2119,-2.2173,-2.2173,-2.2173,-2.2173,-2.2173,-2.2172,-2.2471,-2.2463,-2.2445,-2.2428,-2.2408,-2.2393,-2.2381,-2.2364,-2.2345,-2.2324,-2.2309,-2.2288,-2.2261,-2.2237,-2.2218,-2.2209,-2.2202,-2.2214,-2.2201,-2.2165,-2.2159,-2.2152,-2.2153,-2.2213,-2.2213,-2.224,-2.224,-2.224]},{"header":{"parameterUnit":"m.s-1","parameterCategory":1,"la1":30.2991,"la2":30.254,"lo1":-89.0895,"lo2":-89.0444,"dy":0.0017,"dx":0.0017,"nx":28,"ny":28,"refTime":"2024-05-01T03:00:00:Z","depth":0,"parameterNumber":3,"parameterNumberName":"V-component_of_WINDS"},"data":[0,0,0,0,0,0,0,0,0,0,0,0,0,0,0,0,0,0,0,0,0,0,0,0,0,0,0,0,0,0,0,0,0,0,0,0,0,0,0,0,0,0,0,0,0,0,0,0,0,0,0,0,0,0,0,0,0,0,2.7678,2.7678,0,2.7687,2.7687,2.7687,2.774,2.7741,2.7743,2.7744,2.7746,2.7745,2.7744,0,0,0,0,0,0,0,0,0,0,0,0,0,2.7702,2.7702,2.7678,2.7678,2.7678,2.7687,2.7687,2.7687,2.774,2.7741,2.7743,2.7745,2.7747,2.7745,2.7744,0,0,0,0,0,0,0,0,0,0,0,0,0,2.7699,2.7701,2.7678,2.7706,2.7708,2.7687,2.7687,2.7687,2.774,2.7742,2.7744,2.7745,2.7747,2.7745,2.7744,2.7694,0,0,2.7738,2.7738,0,0,0,0,0,0,0,0,2.7699,2.7698,2.7702,2.7704,2.7707,2.7715,2.7696,2.7689,2.7739,2.7727,2.7744,2.7746,2.7734,2.7733,2.773,2.7694,2.7694,2.7738,2.7737,2.7736,2.7736,0,0,0,0,0,0,0,2.77,2.7698,2.7681,2.7701,2.7705,2.7716,2.7718,2.7695,2.7719,2.7729,2.7733,2.7733,2.7735,2.7732,2.7731,2.7694,2.7738,2.7737,2.7736,2.7735,2.7618,2.7616,0,0,0,0,0,0,2.7697,2.7698,2.7681,2.7681,2.7708,2.7714,2.7716,2.771,2.772,2.7723,2.7732,2.7736,2.7734,2.7733,2.7731,2.7674,2.7736,2.7735,2.7734,2.762,2.7618,2.7616,0,0,0,0,0,0,2.7697,2.7695,2.768,2.7691,2.769,2.7712,2.7704,2.7709,2.7706,2.7722,2.7726,2.7724,2.7735,2.7733,2.7703,2.7675,2.7734,2.7732,2.7623,2.762,2.7617,2.7559,0,0,0,0,0,0,2.7697,2.7694,2.7676,2.769,2.7689,2.7654,2.7702,2.7708,2.7703,2.7709,2.7716,2.7719,2.7737,2.7706,2.7702,2.7674,2.7731,2.7625,2.7621,2.7618,2.7564,2.7554,2.7547,0,0,0,0,0,2.7698,2.7658,2.7675,2.7673,2.7668,2.7652,2.7651,2.7675,2.7701,2.7682,2.7693,2.7718,2.7679,2.7702,2.7698,2.7669,2.7627,2.7623,2.7618,2.7567,2.7556,2.7547,0,0,0,0,0,0,2.7637,2.766,2.768,2.7643,2.7646,2.7661,2.7639,2.7662,2.7655,2.766,2.7688,2.7689,2.7655,2.7659,2.7685,2.7622,2.7658,2.7652,2.762,2.761,2.7602,2.7601,2.773,0,0,0,0,0,2.762,2.7608,2.7628,2.7593,2.7594,2.7616,2.761,2.7629,2.7631,2.7632,2.764,2.764,2.7629,2.7619,2.7609,2.7565,2.7567,2.7543,2.7535,2.7527,2.7522,2.75,2.749,2.7601,2.7601,2.7601,0,0,2.7583,2.7595,2.7584,2.7581,2.7586,2.7571,2.7616,2.7598,2.7587,2.7628,2.7601,2.7608,2.761,2.7573,2.7557,2.7575,2.7492,2.7522,2.7516,2.7514,2.7494,2.7484,2.7474,2.7598,2.7598,2.7599,0,0,2.7509,2.7517,2.749,2.7494,2.7501,2.7516,2.751,2.7523,2.7529,2.7503,2.7535,2.7521,2.7499,2.75,2.7497,2.7427,2.745,2.7422,2.7377,2.7356,2.7347,2.7339,2.7314,2.7305,2.7417,2.7417,2.7417,0,2.7462,2.7443,2.7472,2.7453,2.7451,2.7491,2.7463,2.7465,2.7467,2.7464,2.7485,2.746,2.7464,2.7429,2.7412,2.7408,2.7402,2.7421,2.7346,2.7339,2.7332,2.7309,2.7299,2.7413,2.7414,2.7414,2.7414,0,2.7385,2.7371,2.7348,2.7353,2.7348,2.7324,2.7349,2.7341,2.736,2.7373,2.7346,2.7353,2.7346,2.7339,2.7356,2.7306,2.7317,2.7342,2.7378,2.7318,2.7296,2.7287,2.7409,2.741,2.7411,2.7412,0,0,2.727,2.7294,2.7285,2.7288,2.73,2.7289,2.7268,2.7263,2.7255,2.7256,2.7238,2.722,2.7244,2.7241,2.7259,2.724,2.7185,2.7267,2.7268,2.7252,2.7131,2.7112,2.7101,2.7201,2.7199,2.7198,2.7131,0,2.72,2.7167,2.7194,2.7154,2.7142,2.7181,2.7163,2.7167,2.7179,2.7169,2.7182,2.7169,2.7201,2.72,2.7183,2.7195,2.716,2.72,2.7183,2.7182,2.7181,2.709,2.7069,2.7006,2.7122,2.7121,2.712,0,2.7113,2.7113,2.7073,2.709,2.7086,2.7069,2.7068,2.7058,2.7064,2.7074,2.7073,2.7096,2.7075,2.7112,2.7084,2.711,2.7105,2.711,2.7108,2.7107,2.7147,2.7086,2.6986,2.6976,2.7107,2.7108,2.7109,0,2.7034,2.7024,2.7,2.7001,2.7019,2.7007,2.7013,2.7022,2.7018,2.7016,2.7014,2.7009,2.7006,2.7001,2.7023,2.7047,2.6992,2.703,2.6999,2.6998,2.6984,2.6984,2.6882,2.6981,2.6981,2.6981,2.6982,0,2.6952,2.6926,2.6965,2.6949,2.6922,2.6953,2.6925,2.6935,2.6943,2.693,2.6962,2.6949,2.6978,2.6968,2.6984,2.6959,2.6957,2.6964,2.6968,2.6961,2.696,2.6957,2.6962,2.6979,2.6979,2.698,2.698,0,2.6858,2.6883,2.686,2.688,2.6885,2.6864,2.6881,2.6867,2.6883,2.6866,2.6863,2.6887,2.6876,2.6898,2.6889,2.6901,2.6864,2.6876,2.6863,2.6866,2.6834,2.6837,2.6726,2.6713,2.682,2.6819,2.6818,0,2.6804,2.6786,2.6806,2.6801,2.6807,2.6798,2.6795,2.6825,2.682,2.6828,2.6813,2.6806,2.6802,2.6783,2.6798,2.6792,2.6804,2.6765,2.6803,2.6796,2.6803,2.6804,2.6803,2.6757,2.6756,2.6755,2.6754,0,2.6706,2.672,2.6716,2.6717,2.6713,2.6714,2.6718,2.6711,2.6743,2.6736,2.6728,2.6725,2.6718,2.6711,2.6709,2.6714,2.6739,2.6742,2.6735,2.6726,2.672,2.6724,2.6842,2.6744,2.6745,2.6746,2.6746,2.6747,2.6631,2.6617,2.663,2.6625,2.6631,2.6634,2.6623,2.6639,2.6633,2.6631,2.6649,2.6636,2.6644,2.6645,2.6648,2.6638,2.6655,2.6644,2.6641,2.6638,2.6633,2.6722,2.6638,2.6638,2.6638,2.6638,2.6639,0,2.6534,2.6545,2.654,2.6546,2.6542,2.6569,2.6574,2.6569,2.6558,2.6565,2.6561,2.6551,2.6545,2.6561,2.6556,2.6545,2.6557,2.6543,2.6544,2.6545,2.6618,2.6625,2.6534,2.6534,2.6534,2.6534,2.6534,2.6534,2.6484,2.6463,2.6478,2.6461,2.6471,2.6462,2.6463,2.6465,2.6471,2.646,2.6456,2.6467,2.6477,2.6474,2.647,2.6474,2.6471,2.6454,2.6462,2.6529,2.654,2.6549,2.6556,2.6453,2.6452,2.639,2.639,2.6389]}]]